• En España
  • Lista de países
  • Para 7 días
  • Temperatura del agua
  • Mapa Satelital
  • El tiempo en el mapa
  • Informadores
  • user-avatar
    Iniciar sesión

    Tiempo cada hora Potosi

    Hoy, 15 Noviembre, Jueves

    Tiempo Temperatura Precipitaciones Viento Presión Humedad
    00:00 +10°C° 0 mm 2 mps 469 mmHg 68%
    01:00 +9°C° 0 mm 2 mps 468 mmHg 70%
    02:00 +9°C° 0 mm 2 mps 468 mmHg 71%
    03:00 +9°C° 0 mm 2 mps 468 mmHg 72%
    04:00 +8°C° 0 mm 2 mps 468 mmHg 74%
    05:00 +8°C° 0 mm 2 mps 467 mmHg 76%
    06:00 +8°C° 0 mm 2 mps 468 mmHg 71%
    07:00 +9°C° 0 mm 2 mps 468 mmHg 67%
    08:00 +11°C° 0 mm 1 mps 469 mmHg 60%
    09:00 +12°C° 0 mm 2 mps 470 mmHg 52%
    10:00 +13°C° 0 mm 2 mps 470 mmHg 44%
    11:00 +15°C° 0 mm 2 mps 471 mmHg 37%
    12:00 +16°C° 0.2 mm 2 mps 471 mmHg 34%
    13:00 +16°C° 0.2 mm 3 mps 471 mmHg 32%
    14:00 +17°C° 0.2 mm 3 mps 471 mmHg 29%
    15:00 +17°C° 0.1 mm 4 mps 470 mmHg 33%
    16:00 +16°C° 0.1 mm 5 mps 470 mmHg 36%
    17:00 +15°C° 0.1 mm 5 mps 469 mmHg 40%
    18:00 +14°C° 1.2 mm 5 mps 469 mmHg 45%
    19:00 +13°C° 1.2 mm 4 mps 469 mmHg 50%
    20:00 +12°C° 1.2 mm 4 mps 468 mmHg 56%
    21:00 +11°C° 0.2 mm 3 mps 469 mmHg 57%
    22:00 +11°C° 0.2 mm 3 mps 469 mmHg 59%
    23:00 +10°C° 0.2 mm 3 mps 469 mmHg 61%

    Mañana, 16 Noviembre, Viernes

    Tiempo Temperatura Precipitaciones Viento Presión Humedad
    00:00 +10°C° 0 mm 2 mps 469 mmHg 62%
    01:00 +10°C° 0 mm 2 mps 468 mmHg 63%
    02:00 +10°C° 0 mm 1 mps 468 mmHg 64%
    03:00 +10°C° 0 mm 1 mps 468 mmHg 65%
    04:00 +10°C° 0 mm 1 mps 468 mmHg 66%
    05:00 +9°C° 0 mm 1 mps 468 mmHg 68%
    06:00 +10°C° 0 mm 1 mps 468 mmHg 64%
    07:00 +11°C° 0 mm 1 mps 469 mmHg 61%
    08:00 +10°C° 0 mm 2 mps 469 mmHg 58%
    09:00 +13°C° 0.3 mm 2 mps 470 mmHg 51%
    10:00 +13°C° 0.3 mm 3 mps 471 mmHg 45%
    11:00 +14°C° 0.3 mm 3 mps 472 mmHg 38%
    12:00 +15°C° 0.1 mm 4 mps 471 mmHg 38%
    13:00 +16°C° 0.1 mm 6 mps 471 mmHg 37%
    14:00 +16°C° 0.1 mm 7 mps 471 mmHg 37%
    15:00 +14°C° 1.4 mm 7 mps 470 mmHg 46%
    16:00 +13°C° 1.4 mm 6 mps 468 mmHg 55%
    17:00 +10°C° 1.4 mm 6 mps 467 mmHg 65%
    18:00 +9°C° 1.8 mm 5 mps 467 mmHg 68%
    19:00 +10°C° 1.8 mm 4 mps 467 mmHg 72%
    20:00 +9°C° 1.8 mm 3 mps 467 mmHg 75%
    21:00 +9°C° 1.6 mm 3 mps 467 mmHg 76%
    22:00 +8°C° 1.6 mm 3 mps 467 mmHg 77%
    23:00 +8°C° 1.6 mm 3 mps 468 mmHg 78%

    Pasado mañana, 17 Noviembre, Sábado

    Tiempo Temperatura Precipitaciones Viento Presión Humedad
    00:00 +8°C° 2.2 mm 3 mps 467 mmHg 77%
    01:00 +8°C° 2.2 mm 2 mps 467 mmHg 76%
    02:00 +8°C° 2.2 mm 2 mps 467 mmHg 75%
    03:00 +8°C° 1 mm 2 mps 467 mmHg 71%
    04:00 +8°C° 1 mm 2 mps 467 mmHg 67%
    05:00 +8°C° 1 mm 3 mps 467 mmHg 63%
    06:00 +9°C° 0.2 mm 2 mps 468 mmHg 59%
    07:00 +9°C° 0.2 mm 2 mps 468 mmHg 55%
    08:00 +11°C° 0.2 mm 1 mps 468 mmHg 50%
    09:00 +12°C° 0.1 mm 1 mps 469 mmHg 47%
    10:00 +13°C° 0.1 mm 1 mps 470 mmHg 45%
    11:00 +14°C° 0.1 mm 1 mps 470 mmHg 42%
    12:00 +15°C° 0.3 mm 2 mps 470 mmHg 40%
    13:00 +16°C° 0.3 mm 2 mps 470 mmHg 38%
    14:00 +16°C° 0.3 mm 2 mps 470 mmHg 36%
    15:00 +16°C° 0.1 mm 3 mps 469 mmHg 37%
    16:00 +16°C° 0.1 mm 3 mps 469 mmHg 38%
    17:00 +15°C° 0.1 mm 4 mps 468 mmHg 39%
    18:00 +14°C° 0.5 mm 4 mps 468 mmHg 44%
    19:00 +13°C° 0.5 mm 4 mps 468 mmHg 48%
    20:00 +12°C° 0.5 mm 4 mps 468 mmHg 53%
    21:00 +12°C° 0 mm 3 mps 468 mmHg 57%
    22:00 +12°C° 0 mm 2 mps 469 mmHg 61%
    23:00 +12°C° 0 mm 2 mps 469 mmHg 65%

    18 Noviembre, Domingo

    Tiempo Temperatura Precipitaciones Viento Presión Humedad
    00:00 +11°C° 0 mm 1 mps 468 mmHg 68%
    01:00 +11°C° 0 mm 1 mps 468 mmHg 71%
    02:00 +9°C° 0 mm 0 mps 467 mmHg 74%
    03:00 +10°C° 0 mm 1 mps 467 mmHg 75%
    04:00 +10°C° 0 mm 1 mps 467 mmHg 77%
    05:00 +9°C° 0 mm 1 mps 467 mmHg 78%
    06:00 +10°C° 0 mm 1 mps 468 mmHg 72%
    07:00 +11°C° 0 mm 1 mps 469 mmHg 66%
    08:00 +12°C° 0 mm 2 mps 470 mmHg 60%
    09:00 +11°C° 0.5 mm 3 mps 470 mmHg 58%
    10:00 +12°C° 0.5 mm 3 mps 471 mmHg 55%
    11:00 +13°C° 0.5 mm 4 mps 471 mmHg 52%
    12:00 +13°C° 1.3 mm 4 mps 471 mmHg 54%
    13:00 +13°C° 1.3 mm 5 mps 471 mmHg 56%
    14:00 +12°C° 1.3 mm 5 mps 470 mmHg 57%
    15:00 +10°C° 1.1 mm 5 mps 469 mmHg 62%
    16:00 +10°C° 1.1 mm 4 mps 468 mmHg 66%
    17:00 +8°C° 1.1 mm 4 mps 468 mmHg 71%
    18:00 +9°C° 1.5 mm 3 mps 468 mmHg 74%
    19:00 +8°C° 1.5 mm 3 mps 468 mmHg 77%
    20:00 +7°C° 1.5 mm 3 mps 468 mmHg 81%
    21:00 +7°C° 0.5 mm 3 mps 468 mmHg 81%
    22:00 +7°C° 0.5 mm 3 mps 468 mmHg 80%
    23:00 +5°C° 0.5 mm 3 mps 469 mmHg 80%

    19 Noviembre, Lunes

    Tiempo Temperatura Precipitaciones Viento Presión Humedad
    00:00 +5°C° 0.2 mm 3 mps 468 mmHg 81%
    01:00 +6°C° 0.2 mm 2 mps 468 mmHg 81%
    02:00 +6°C° 0.2 mm 2 mps 467 mmHg 82%
    03:00 +6°C° 0.1 mm 2 mps 467 mmHg 81%
    04:00 +6°C° 0.1 mm 2 mps 467 mmHg 80%
    05:00 +6°C° 0.1 mm 2 mps 467 mmHg 79%
    06:00 +7°C° 0 mm 1 mps 467 mmHg 77%
    07:00 +7°C° 0 mm 1 mps 468 mmHg 76%
    08:00 +8°C° 0 mm 1 mps 468 mmHg 74%
    09:00 +8°C° 0 mm 2 mps 469 mmHg 69%
    10:00 +9°C° 0 mm 2 mps 469 mmHg 64%
    11:00 +10°C° 0 mm 2 mps 470 mmHg 60%
    12:00 +11°C° 0.1 mm 3 mps 469 mmHg 57%
    13:00 +12°C° 0.1 mm 4 mps 469 mmHg 53%
    14:00 +12°C° 0.1 mm 5 mps 469 mmHg 50%
    15:00 +12°C° 0.2 mm 5 mps 469 mmHg 52%
    16:00 +10°C° 0.2 mm 5 mps 468 mmHg 54%
    17:00 +10°C° 0.2 mm 5 mps 467 mmHg 55%
    18:00 +10°C° 0.1 mm 4 mps 467 mmHg 58%
    19:00 +9°C° 0.1 mm 3 mps 467 mmHg 61%
    20:00 +9°C° 0.1 mm 2 mps 467 mmHg 64%
    21:00 +9°C° 0 mm 2 mps 468 mmHg 66%
    22:00 +8°C° 0 mm 2 mps 468 mmHg 68%
    23:00 +8°C° 0 mm 2 mps 468 mmHg 70%

    20 Noviembre, Martes

    Tiempo Temperatura Precipitaciones Viento Presión Humedad
    00:00 +8°C° 0 mm 2 mps 468 mmHg 72%
    01:00 +8°C° 0 mm 2 mps 467 mmHg 73%
    02:00 +7°C° 0 mm 2 mps 467 mmHg 75%
    03:00 +7°C° 0 mm 2 mps 467 mmHg 76%
    04:00 +8°C° 0 mm 1 mps 467 mmHg 77%
    05:00 +8°C° 0 mm 1 mps 467 mmHg 79%
    06:00 +8°C° 0 mm 1 mps 467 mmHg 76%
    07:00 +8°C° 0 mm 1 mps 468 mmHg 74%
    08:00 +9°C° 0 mm 1 mps 468 mmHg 72%
    09:00 +9°C° 0 mm 2 mps 469 mmHg 66%
    10:00 +11°C° 0 mm 3 mps 470 mmHg 59%
    11:00 +12°C° 0 mm 3 mps 470 mmHg 53%
    12:00 +12°C° 0.2 mm 4 mps 470 mmHg 53%
    13:00 +12°C° 0.2 mm 5 mps 470 mmHg 52%
    14:00 +13°C° 0.2 mm 6 mps 469 mmHg 52%
    15:00 +11°C° 0.2 mm 6 mps 469 mmHg 55%
    16:00 +10°C° 0.2 mm 6 mps 468 mmHg 58%
    17:00 +10°C° 0.2 mm 7 mps 468 mmHg 61%
    18:00 +9°C° 0.2 mm 6 mps 468 mmHg 65%
    19:00 +8°C° 0.2 mm 5 mps 468 mmHg 69%
    20:00 +7°C° 0.2 mm 4 mps 468 mmHg 73%
    21:00 +7°C° 0.6 mm 4 mps 468 mmHg 75%
    22:00 +7°C° 0.6 mm 3 mps 468 mmHg 77%
    23:00 +7°C° 0.6 mm 3 mps 468 mmHg 78%
    Mostrar más